MFX463 UZTT-UNOO

Flight info

Callsign MFX463
Flight time 2h 15m
Altitude 35000
Route N0450F350 NIMAG Z632 GENDI M168 TIMKA P178 AMIGU M75 DAKIN N990 ALODA
Aircraft A320/M-VGDW/C

Departure

Time 2026-04-28 07:30
Airport Tashkent International Airport (UZTT)

Arrival

Time 2026-04-28 09:45
Airport Omsk Central Airport (UNOO)
Time Latitude Longitude Altitude Speed Heading
2026-04-28 07:23 41.26044 69.26998 1381 ft 0 kts 336°
2026-04-28 07:27 41.26072 69.26967 1378 ft 8 kts 290°
2026-04-28 07:27 41.26056 69.26902 1378 ft 9 kts 244°
2026-04-28 07:28 41.26013 69.26773 1377 ft 21 kts 246°
2026-04-28 07:28 41.25953 69.26589 1379 ft 22 kts 246°
2026-04-28 07:28 41.25867 69.26433 1380 ft 14 kts 218°
2026-04-28 07:28 41.25786 69.26354 1382 ft 15 kts 202°
2026-04-28 07:29 41.25683 69.26411 1378 ft 20 kts 134°
2026-04-28 07:29 41.25671 69.26519 1382 ft 3 kts 83°
2026-04-28 07:29 41.25674 69.26550 1382 ft 8 kts 83°
2026-04-28 07:29 41.25709 69.26879 1378 ft 77 kts 82°
2026-04-28 07:30 41.25825 69.27921 1382 ft 150 kts 82°
2026-04-28 07:30 41.25996 69.29482 1782 ft 174 kts 82°
2026-04-28 07:30 41.26155 69.31082 2624 ft 176 kts 82°
2026-04-28 07:30 41.26314 69.32751 3125 ft 190 kts 83°
2026-04-28 07:31 41.26490 69.34593 3317 ft 213 kts 82°
2026-04-28 07:31 41.26690 69.36658 3584 ft 237 kts 82°
2026-04-28 07:31 41.26905 69.38876 4184 ft 245 kts 83°
2026-04-28 07:31 41.27125 69.41135 4989 ft 247 kts 83°
2026-04-28 07:32 41.27342 69.43372 5807 ft 248 kts 84°
2026-04-28 07:32 41.27154 69.45632 6560 ft 250 kts 116°
2026-04-28 07:32 41.26006 69.47327 7256 ft 251 kts 153°
2026-04-28 07:32 41.24314 69.47777 7967 ft 253 kts 189°
2026-04-28 07:33 41.22732 69.46802 8650 ft 257 kts 225°
2026-04-28 07:33 41.21809 69.44756 9205 ft 270 kts 258°
2026-04-28 07:33 41.21814 69.42191 9524 ft 289 kts 281°
2026-04-28 07:33 41.22271 69.39539 10118 ft 298 kts 287°
2026-04-28 07:34 41.22865 69.36857 10468 ft 318 kts 288°
2026-04-28 07:34 41.23551 69.33949 10668 ft 341 kts 288°
2026-04-28 07:34 41.24268 69.30855 11009 ft 357 kts 287°
2026-04-28 07:34 41.24950 69.27653 11624 ft 364 kts 282°
2026-04-28 07:35 41.25228 69.24300 12309 ft 368 kts 270°
2026-04-28 07:35 41.24995 69.20897 12977 ft 372 kts 262°
2026-04-28 07:35 41.24621 69.17490 13699 ft 374 kts 262°
2026-04-28 07:35 41.24251 69.14060 14330 ft 377 kts 262°
2026-04-28 07:36 41.23886 69.10602 14951 ft 379 kts 263°
2026-04-28 07:36 41.23856 69.07140 15529 ft 383 kts 278°
2026-04-28 07:36 41.24606 69.03744 16112 ft 386 kts 296°
2026-04-28 07:36 41.26119 69.00794 16685 ft 390 kts 314°
2026-04-28 07:37 41.28280 68.98630 17256 ft 393 kts 333°
2026-04-28 07:37 41.30873 68.97495 17822 ft 395 kts 352°
2026-04-28 07:37 41.33620 68.97121 18373 ft 399 kts 355°
2026-04-28 07:37 41.36391 68.96789 18875 ft 402 kts 355°
2026-04-28 07:38 41.39157 68.96461 19385 ft 405 kts 355°
2026-04-28 07:38 41.41972 68.96122 19857 ft 409 kts 355°
2026-04-28 07:38 41.44816 68.95773 20369 ft 412 kts 354°
2026-04-28 07:38 41.47677 68.95418 20881 ft 414 kts 354°
2026-04-28 07:39 41.50557 68.95060 21331 ft 418 kts 354°
2026-04-28 07:39 41.53463 68.94698 21815 ft 421 kts 354°
2026-04-28 07:39 41.56388 68.94333 22268 ft 424 kts 354°
2026-04-28 07:39 41.59343 68.93962 22696 ft 428 kts 354°
2026-04-28 07:40 41.62268 68.93593 23145 ft 430 kts 354°
2026-04-28 07:40 41.65256 68.93216 23571 ft 433 kts 354°
2026-04-28 07:40 41.68262 68.92838 23930 ft 435 kts 354°
2026-04-28 07:40 41.71283 68.92460 24295 ft 437 kts 354°
2026-04-28 07:41 41.74317 68.92083 24643 ft 439 kts 354°
2026-04-28 07:41 41.77359 68.91703 24980 ft 441 kts 354°
2026-04-28 07:41 41.80424 68.91322 25316 ft 443 kts 354°
2026-04-28 07:41 41.83504 68.90936 25649 ft 445 kts 354°
2026-04-28 07:42 41.86597 68.90545 25980 ft 447 kts 354°
2026-04-28 07:42 41.89704 68.90152 26304 ft 449 kts 354°
2026-04-28 07:42 41.92782 68.89760 26614 ft 451 kts 354°
2026-04-28 07:42 41.95916 68.89365 26929 ft 453 kts 354°
2026-04-28 07:43 41.99064 68.88971 27233 ft 455 kts 354°
2026-04-28 07:43 42.02226 68.88576 27524 ft 457 kts 354°
2026-04-28 07:43 42.05402 68.88178 27814 ft 459 kts 354°
2026-04-28 07:43 42.08592 68.87775 28088 ft 461 kts 354°
2026-04-28 07:44 42.11794 68.87367 28347 ft 463 kts 354°
2026-04-28 07:44 42.15007 68.86954 28620 ft 465 kts 354°
2026-04-28 07:44 42.18183 68.86546 28870 ft 466 kts 354°
2026-04-28 07:44 42.21427 68.86132 29116 ft 468 kts 354°
2026-04-28 07:45 42.24669 68.85723 29366 ft 470 kts 354°
2026-04-28 07:45 42.27926 68.85312 29623 ft 470 kts 354°
2026-04-28 07:45 42.31179 68.84897 29959 ft 469 kts 354°
2026-04-28 07:45 42.34426 68.84480 30248 ft 468 kts 353°
2026-04-28 07:46 42.37669 68.84061 30513 ft 468 kts 353°
2026-04-28 07:46 42.40908 68.83631 30779 ft 467 kts 351°
2026-04-28 07:46 42.44043 68.82785 31052 ft 465 kts 342°
2026-04-28 07:46 42.47083 68.81339 31330 ft 462 kts 336°
2026-04-28 07:47 42.50071 68.79732 31615 ft 462 kts 336°
2026-04-28 07:47 42.53055 68.78128 31893 ft 461 kts 336°
2026-04-28 07:47 42.56033 68.76524 32183 ft 460 kts 336°
2026-04-28 07:47 42.59007 68.74923 32467 ft 459 kts 336°
2026-04-28 07:48 42.61976 68.73327 32758 ft 458 kts 336°
2026-04-28 07:48 42.64938 68.71738 33053 ft 457 kts 336°
2026-04-28 07:48 42.67857 68.70175 33336 ft 456 kts 336°
2026-04-28 07:48 42.70801 68.68592 33617 ft 456 kts 336°
2026-04-28 07:49 42.73745 68.67001 33865 ft 455 kts 336°
2026-04-28 07:49 42.76689 68.65407 33933 ft 455 kts 336°
2026-04-28 07:49 42.82572 68.62211 33942 ft 455 kts 336°
2026-04-28 07:50 42.88459 68.59045 33942 ft 455 kts 336°
2026-04-28 07:50 42.94315 68.55922 33942 ft 455 kts 336°
2026-04-28 07:51 43.00203 68.52766 33948 ft 454 kts 336°
2026-04-28 07:51 43.06080 68.49610 33955 ft 454 kts 336°
2026-04-28 07:52 43.11962 68.46441 33965 ft 454 kts 336°
2026-04-28 07:52 43.17800 68.43280 33949 ft 454 kts 335°
2026-04-28 07:53 43.23679 68.40101 33954 ft 454 kts 336°
2026-04-28 07:53 43.29608 68.37102 33959 ft 456 kts 343°
2026-04-28 07:54 43.35902 68.35891 33958 ft 458 kts 352°
2026-04-28 07:54 43.42205 68.35059 33956 ft 458 kts 352°
2026-04-28 07:55 43.48547 68.34205 33971 ft 458 kts 353°
2026-04-28 07:55 43.54882 68.33347 33979 ft 457 kts 352°
2026-04-28 07:56 43.61208 68.32492 33986 ft 457 kts 352°
2026-04-28 07:56 43.67494 68.31651 33995 ft 457 kts 353°
2026-04-28 07:57 43.73814 68.30795 34010 ft 457 kts 352°
2026-04-28 07:57 43.80140 68.29947 34017 ft 457 kts 352°
2026-04-28 07:58 43.86463 68.29091 34021 ft 456 kts 352°
2026-04-28 07:58 43.92783 68.28232 34030 ft 456 kts 352°
2026-04-28 07:59 43.99058 68.27377 34041 ft 456 kts 352°
2026-04-28 07:59 44.05371 68.26517 34035 ft 455 kts 352°
2026-04-28 08:00 44.11678 68.25661 34037 ft 455 kts 352°
2026-04-28 08:00 44.18024 68.26076 34042 ft 460 kts
2026-04-28 08:01 44.24306 68.27389 34038 ft 460 kts
2026-04-28 08:01 44.30634 68.28707 34051 ft 459 kts
2026-04-28 08:02 44.36953 68.30026 34049 ft 459 kts
2026-04-28 08:02 44.43269 68.31337 34045 ft 459 kts
2026-04-28 08:03 44.49542 68.32640 34056 ft 459 kts
2026-04-28 08:03 44.55855 68.33958 34058 ft 459 kts
2026-04-28 08:04 44.62162 68.35288 34056 ft 459 kts
2026-04-28 08:04 44.68476 68.36617 34075 ft 459 kts
2026-04-28 08:05 44.74786 68.37949 34074 ft 458 kts
2026-04-28 08:05 44.81044 68.39274 34074 ft 457 kts
2026-04-28 08:06 44.87337 68.40610 34074 ft 457 kts
2026-04-28 08:06 44.93631 68.41941 34081 ft 457 kts
2026-04-28 08:07 44.99921 68.43281 34079 ft 457 kts
2026-04-28 08:07 45.06168 68.44621 34082 ft 457 kts
2026-04-28 08:08 45.12439 68.45963 34088 ft 456 kts
2026-04-28 08:08 45.18705 68.47293 34089 ft 455 kts
2026-04-28 08:09 45.24963 68.48628 34092 ft 455 kts
2026-04-28 08:09 45.31216 68.49979 34092 ft 454 kts
2026-04-28 08:10 45.37422 68.51322 34098 ft 454 kts
2026-04-28 08:10 45.43664 68.52669 34097 ft 453 kts
2026-04-28 08:11 45.49902 68.54005 34100 ft 453 kts
2026-04-28 08:11 45.56129 68.55349 34107 ft 452 kts
2026-04-28 08:12 45.62297 68.56699 34102 ft 452 kts
2026-04-28 08:12 45.68506 68.58056 34105 ft 451 kts
2026-04-28 08:13 45.74715 68.59417 34107 ft 451 kts
2026-04-28 08:13 45.80922 68.60776 34123 ft 451 kts
2026-04-28 08:14 45.87087 68.62121 34125 ft 451 kts
2026-04-28 08:14 45.93278 68.63478 34126 ft 450 kts
2026-04-28 08:15 45.99464 68.64844 34128 ft 449 kts
2026-04-28 08:15 46.05646 68.66215 34134 ft 449 kts
2026-04-28 08:16 46.11782 68.67581 34126 ft 449 kts
2026-04-28 08:16 46.17956 68.68959 34123 ft 449 kts
2026-04-28 08:17 46.24130 68.70323 34131 ft 449 kts
2026-04-28 08:17 46.30306 68.71699 34123 ft 449 kts
2026-04-28 08:18 46.36437 68.73066 34130 ft 448 kts
2026-04-28 08:18 46.42591 68.74444 34132 ft 448 kts
2026-04-28 08:19 46.48749 68.75840 34127 ft 448 kts
2026-04-28 08:19 46.54908 68.77230 34120 ft 448 kts
2026-04-28 08:20 46.61027 68.78608 34123 ft 448 kts
2026-04-28 08:20 46.67187 68.80008 34138 ft 448 kts
2026-04-28 08:21 46.73355 68.81407 34128 ft 449 kts
2026-04-28 08:21 46.79529 68.82809 34123 ft 449 kts
2026-04-28 08:22 46.85661 68.84205 34126 ft 449 kts
2026-04-28 08:22 46.91847 68.85606 34140 ft 450 kts
2026-04-28 08:23 46.98035 68.87023 34137 ft 450 kts
2026-04-28 08:23 47.04229 68.88454 34147 ft 450 kts
2026-04-28 08:24 47.09376 68.89643 34144 ft 451 kts
2026-04-28 08:24 47.15571 68.91069 34149 ft 451 kts
2026-04-28 08:25 47.22771 68.92732 34160 ft 450 kts
2026-04-28 08:26 47.31000 68.94638 34169 ft 449 kts
2026-04-28 08:26 47.37176 68.96075 34170 ft 449 kts
2026-04-28 08:27 47.44346 68.97743 34169 ft 449 kts
2026-04-28 08:27 47.49470 68.98937 34168 ft 448 kts
2026-04-28 08:28 47.55628 69.00379 34168 ft 448 kts
2026-04-28 08:28 47.61789 69.01822 34177 ft 448 kts
2026-04-28 08:29 47.67942 69.03277 34177 ft 447 kts
2026-04-28 08:29 47.74084 69.04724 34186 ft 447 kts
2026-04-28 08:30 47.80174 69.06154 34185 ft 446 kts
2026-04-28 08:30 47.86307 69.07602 34193 ft 446 kts
2026-04-28 08:31 47.92438 69.09060 34182 ft 446 kts
2026-04-28 08:31 47.98567 69.10521 34184 ft 446 kts
2026-04-28 08:32 48.04652 69.11972 34196 ft 446 kts
2026-04-28 08:32 48.10777 69.13440 34196 ft 446 kts
2026-04-28 08:33 48.16900 69.14903 34197 ft 445 kts
2026-04-28 08:33 48.23021 69.16368 34194 ft 445 kts
2026-04-28 08:34 48.29124 69.17837 34203 ft 445 kts
2026-04-28 08:34 48.35200 69.19300 34197 ft 445 kts
2026-04-28 08:35 48.41318 69.20786 34193 ft 445 kts
2026-04-28 08:35 48.47437 69.22275 34190 ft 445 kts
2026-04-28 08:36 48.53552 69.23758 34210 ft 445 kts
2026-04-28 08:36 48.59631 69.25239 34208 ft 445 kts
2026-04-28 08:37 48.65745 69.26728 34202 ft 445 kts
2026-04-28 08:37 48.71854 69.28217 34201 ft 445 kts
2026-04-28 08:38 48.77965 69.29718 34199 ft 445 kts
2026-04-28 08:38 48.84038 69.31228 34196 ft 445 kts
2026-04-28 08:39 48.90157 69.32744 34195 ft 446 kts
2026-04-28 08:39 48.96282 69.34258 34194 ft 446 kts
2026-04-28 08:40 49.02404 69.35768 34354 ft 445 kts
2026-04-28 08:40 49.05460 69.36526 34593 ft 445 kts
2026-04-28 08:40 49.08517 69.37281 34831 ft 445 kts
2026-04-28 08:40 49.11576 69.38038 35072 ft 445 kts
2026-04-28 08:41 49.14594 69.38790 35183 ft 446 kts
2026-04-28 08:41 49.20721 69.40338 35212 ft 446 kts
2026-04-28 08:42 49.26795 69.42385 35215 ft 452 kts 17°
2026-04-28 08:42 49.32326 69.47063 35212 ft 460 kts 33°
2026-04-28 08:43 49.37479 69.52871 35215 ft 460 kts 33°
2026-04-28 08:43 49.42620 69.58632 35223 ft 460 kts 33°
2026-04-28 08:44 49.47789 69.64443 35225 ft 460 kts 33°
2026-04-28 08:44 49.52953 69.70272 35232 ft 461 kts 33°
2026-04-28 08:45 49.58111 69.76127 35238 ft 461 kts 33°
2026-04-28 08:45 49.63231 69.81958 35230 ft 461 kts 33°
2026-04-28 08:46 49.68388 69.87834 35232 ft 461 kts 33°
2026-04-28 08:46 49.73538 69.93711 35240 ft 461 kts 33°
2026-04-28 08:47 49.78693 69.99617 35235 ft 460 kts 33°
2026-04-28 08:47 49.83807 70.05469 35243 ft 460 kts 33°
2026-04-28 08:48 49.88955 70.11390 35251 ft 461 kts 33°
2026-04-28 08:48 49.94089 70.17321 35263 ft 460 kts 33°
2026-04-28 08:49 49.99205 70.23262 35265 ft 459 kts 33°
2026-04-28 08:49 50.04290 70.29177 35268 ft 459 kts 33°
2026-04-28 08:50 50.09396 70.35134 35270 ft 459 kts 33°
2026-04-28 08:50 50.14500 70.41098 35294 ft 459 kts 34°
2026-04-28 08:51 50.19598 70.47079 35288 ft 458 kts 34°
2026-04-28 08:51 50.24644 70.53016 35288 ft 457 kts 34°
2026-04-28 08:52 50.29726 70.59005 35283 ft 457 kts 34°
2026-04-28 08:52 50.34793 70.65003 35283 ft 457 kts 34°
2026-04-28 08:53 50.39861 70.71006 35284 ft 457 kts 34°
2026-04-28 08:53 50.44895 70.76968 35283 ft 456 kts 34°
2026-04-28 08:54 50.49961 70.82997 35263 ft 457 kts 34°
2026-04-28 08:54 50.55020 70.89037 35272 ft 457 kts 34°
2026-04-28 08:55 50.60083 70.95096 35271 ft 457 kts 34°
2026-04-28 08:55 50.65140 71.01171 35291 ft 457 kts 34°
2026-04-28 08:56 50.70163 71.07200 35295 ft 457 kts 34°
2026-04-28 08:56 50.75208 71.13281 35310 ft 456 kts 35°
2026-04-28 08:57 50.80254 71.19372 35310 ft 456 kts 34°
2026-04-28 08:57 50.85313 71.25439 35299 ft 456 kts 34°
2026-04-28 08:58 50.90341 71.31468 35297 ft 457 kts 34°
2026-04-28 08:58 50.95394 71.37560 35309 ft 456 kts 34°
2026-04-28 08:59 51.00771 71.42733 35315 ft 450 kts 19°
2026-04-28 08:59 51.06766 71.45233 35315 ft 445 kts
2026-04-28 09:00 51.12857 71.46975 35310 ft 445 kts
2026-04-28 09:00 51.18907 71.48727 35309 ft 445 kts
2026-04-28 09:01 51.24995 71.50496 35310 ft 445 kts
2026-04-28 09:01 51.31088 71.52269 35316 ft 445 kts
2026-04-28 09:02 51.37184 71.54053 35321 ft 445 kts
2026-04-28 09:02 51.43236 71.55808 35322 ft 446 kts
2026-04-28 09:03 51.49337 71.57592 35313 ft 446 kts
2026-04-28 09:03 51.55437 71.59381 35325 ft 446 kts
2026-04-28 09:04 51.61507 71.61165 35322 ft 446 kts
2026-04-28 09:04 51.67619 71.62971 35321 ft 447 kts
2026-04-28 09:05 51.73726 71.64782 35325 ft 447 kts
2026-04-28 09:05 51.79844 71.66604 35330 ft 447 kts
2026-04-28 09:06 51.85970 71.68419 35338 ft 447 kts
2026-04-28 09:06 51.92091 71.70238 35339 ft 447 kts
2026-04-28 09:07 51.98167 71.72054 35338 ft 447 kts
2026-04-28 09:07 52.04282 71.73889 35334 ft 447 kts
2026-04-28 09:08 52.10400 71.75737 35338 ft 447 kts
2026-04-28 09:08 52.16507 71.77694 35336 ft 447 kts
2026-04-28 09:09 52.22607 71.79695 35333 ft 447 kts
2026-04-28 09:09 52.28670 71.81673 35332 ft 447 kts
2026-04-28 09:10 52.34778 71.83646 35345 ft 447 kts
2026-04-28 09:10 52.40885 71.85615 35338 ft 448 kts
2026-04-28 09:11 52.46957 71.87584 35329 ft 447 kts
2026-04-28 09:11 52.53061 71.89570 35325 ft 447 kts
2026-04-28 09:12 52.59169 71.91567 35322 ft 447 kts
2026-04-28 09:12 52.65269 71.93588 35321 ft 447 kts
2026-04-28 09:13 52.71381 71.95471 35323 ft 447 kts
2026-04-28 09:13 52.77467 71.97216 35322 ft 447 kts
2026-04-28 09:14 52.83593 71.99000 35327 ft 447 kts
2026-04-28 09:14 52.89714 72.00838 35337 ft 447 kts
2026-04-28 09:15 52.95838 72.02682 35335 ft 448 kts
2026-04-28 09:15 53.01972 72.04531 35332 ft 448 kts
2026-04-28 09:16 53.08066 72.06380 35337 ft 448 kts
2026-04-28 09:16 53.14202 72.08237 35337 ft 448 kts
2026-04-28 09:17 53.20344 72.10094 35342 ft 449 kts
2026-04-28 09:17 53.26479 72.11966 35348 ft 449 kts
2026-04-28 09:18 53.32579 72.13840 35344 ft 449 kts
2026-04-28 09:18 53.38720 72.15714 35346 ft 448 kts
2026-04-28 09:19 53.44858 72.17600 35347 ft 449 kts
2026-04-28 09:19 53.50998 72.19496 35345 ft 446 kts
2026-04-28 09:20 53.57029 72.21369 35347 ft 438 kts
2026-04-28 09:20 53.62972 72.23214 35347 ft 437 kts
2026-04-28 09:21 53.68949 72.25122 35352 ft 437 kts
2026-04-28 09:21 53.74918 72.27073 35347 ft 437 kts
2026-04-28 09:21 53.77912 72.28051 35195 ft 438 kts
2026-04-28 09:22 53.80904 72.29027 34954 ft 437 kts
2026-04-28 09:22 53.83854 72.29990 34718 ft 437 kts
2026-04-28 09:22 53.86834 72.30965 34349 ft 434 kts
2026-04-28 09:22 53.89786 72.31931 33754 ft 430 kts
2026-04-28 09:23 53.92709 72.32889 33218 ft 426 kts
2026-04-28 09:23 53.95607 72.33841 32681 ft 422 kts
2026-04-28 09:23 53.98483 72.34786 32139 ft 419 kts
2026-04-28 09:23 54.01331 72.35720 31629 ft 416 kts
2026-04-28 09:24 54.04172 72.36654 31107 ft 414 kts
2026-04-28 09:24 54.06952 72.37567 30597 ft 411 kts
2026-04-28 09:24 54.09746 72.38484 30041 ft 408 kts
2026-04-28 09:24 54.12520 72.39402 29540 ft 404 kts
2026-04-28 09:25 54.15222 72.40639 29068 ft 402 kts 18°
2026-04-28 09:25 54.17752 72.42630 28592 ft 400 kts 27°
2026-04-28 09:25 54.20095 72.45168 28127 ft 397 kts 30°
2026-04-28 09:25 54.22405 72.47713 27673 ft 393 kts 30°
2026-04-28 09:26 54.24667 72.50194 27235 ft 390 kts 30°
2026-04-28 09:26 54.26941 72.52683 26798 ft 386 kts 30°
2026-04-28 09:26 54.29195 72.55151 26365 ft 383 kts 30°
2026-04-28 09:26 54.31434 72.57609 25925 ft 380 kts 30°
2026-04-28 09:27 54.35847 72.62482 25037 ft 375 kts 30°
2026-04-28 09:27 54.38035 72.64905 24585 ft 373 kts 30°
2026-04-28 09:27 54.40210 72.67314 24150 ft 371 kts 30°
2026-04-28 09:28 54.42374 72.69712 23630 ft 370 kts 30°
2026-04-28 09:28 54.44497 72.72069 23159 ft 367 kts 31°
2026-04-28 09:28 54.46632 72.74441 22699 ft 364 kts 31°
2026-04-28 09:28 54.48748 72.76794 22243 ft 361 kts 31°
2026-04-28 09:29 54.50854 72.79140 21792 ft 359 kts 31°
2026-04-28 09:29 54.52946 72.81474 21346 ft 357 kts 31°
2026-04-28 09:29 54.55022 72.83794 20904 ft 356 kts 31°
2026-04-28 09:29 54.57095 72.86110 20471 ft 355 kts 31°
2026-04-28 09:30 54.59163 72.88425 20022 ft 353 kts 30°
2026-04-28 09:30 54.61293 72.90357 19596 ft 350 kts 19°
2026-04-28 09:30 54.63605 72.91563 19174 ft 346 kts
2026-04-28 09:30 54.65960 72.92394 18750 ft 345 kts
2026-04-28 09:31 54.68311 72.93242 18288 ft 344 kts
2026-04-28 09:31 54.70648 72.94097 17864 ft 342 kts
2026-04-28 09:31 54.72971 72.94950 17449 ft 340 kts
2026-04-28 09:31 54.75281 72.95798 17043 ft 339 kts
2026-04-28 09:32 54.77580 72.96642 16637 ft 337 kts
2026-04-28 09:32 54.79841 72.97470 16236 ft 336 kts
2026-04-28 09:32 54.82123 72.98303 15840 ft 335 kts
2026-04-28 09:32 54.84402 72.99136 15442 ft 334 kts
2026-04-28 09:33 54.86675 72.99972 15051 ft 334 kts
2026-04-28 09:33 54.88949 73.00808 14653 ft 334 kts
2026-04-28 09:33 54.91215 73.01643 14258 ft 334 kts
2026-04-28 09:33 54.93487 73.02480 13827 ft 334 kts
2026-04-28 09:34 54.95760 73.03320 13422 ft 332 kts 10°
2026-04-28 09:34 54.97984 73.04141 13019 ft 331 kts 10°
2026-04-28 09:34 55.00229 73.04973 12615 ft 329 kts 10°
2026-04-28 09:34 55.02468 73.05805 12210 ft 328 kts 10°
2026-04-28 09:35 55.04695 73.06633 11804 ft 327 kts 10°
2026-04-28 09:35 55.06871 73.07746 11391 ft 327 kts 23°
2026-04-28 09:35 55.08799 73.09821 10975 ft 326 kts 41°
2026-04-28 09:35 55.10321 73.12734 10571 ft 324 kts 58°
2026-04-28 09:36 55.11322 73.16189 10370 ft 313 kts 71°
2026-04-28 09:36 55.12113 73.19645 10054 ft 309 kts 71°
2026-04-28 09:36 55.12914 73.23136 9673 ft 307 kts 71°
2026-04-28 09:36 55.13703 73.26568 9254 ft 302 kts 71°
2026-04-28 09:37 55.14482 73.29958 8565 ft 300 kts 70°
2026-04-28 09:37 55.15159 73.33362 7934 ft 292 kts 81°
2026-04-28 09:37 55.15331 73.36828 7409 ft 283 kts 96°
2026-04-28 09:37 55.14991 73.40157 6915 ft 276 kts 111°
2026-04-28 09:38 55.14338 73.43249 6437 ft 276 kts 114°
2026-04-28 09:38 55.13667 73.46386 6004 ft 274 kts 113°
2026-04-28 09:38 55.13006 73.49483 5603 ft 270 kts 113°
2026-04-28 09:38 55.12358 73.52528 5182 ft 260 kts 113°
2026-04-28 09:39 55.11743 73.55425 4812 ft 249 kts 113°
2026-04-28 09:39 55.11161 73.58165 4642 ft 233 kts 114°
2026-04-28 09:39 55.10534 73.60718 4521 ft 225 kts 127°
2026-04-28 09:39 55.09381 73.62429 4418 ft 218 kts 159°
2026-04-28 09:40 55.07865 73.62819 3938 ft 228 kts 191°
2026-04-28 09:40 55.06373 73.62042 3609 ft 225 kts 197°
2026-04-28 09:40 55.04915 73.61239 3305 ft 215 kts 196°
2026-04-28 09:40 55.03489 73.60473 3021 ft 214 kts 196°
2026-04-28 09:41 55.02087 73.59660 2778 ft 210 kts 204°
2026-04-28 09:41 55.00896 73.58199 2592 ft 211 kts 224°
2026-04-28 09:41 55.00101 73.56134 2498 ft 202 kts 245°
2026-04-28 09:41 54.99732 73.53848 2519 ft 190 kts 253°
2026-04-28 09:42 54.99452 73.51696 2475 ft 178 kts 252°
2026-04-28 09:42 54.99188 73.49685 2279 ft 166 kts 252°
2026-04-28 09:42 54.98939 73.47793 2073 ft 154 kts 252°
2026-04-28 09:42 54.98707 73.46041 1903 ft 144 kts 252°
2026-04-28 09:43 54.98485 73.44365 1706 ft 140 kts 251°
2026-04-28 09:43 54.98270 73.42741 1514 ft 137 kts 251°
2026-04-28 09:43 54.98055 73.41122 1345 ft 137 kts 252°
2026-04-28 09:43 54.97837 73.39517 1092 ft 138 kts 253°
2026-04-28 09:44 54.97617 73.37869 879 ft 138 kts 254°
2026-04-28 09:44 54.97411 73.36259 736 ft 138 kts 253°
2026-04-28 09:44 54.97200 73.34639 528 ft 137 kts 252°
2026-04-28 09:44 54.96981 73.33027 368 ft 137 kts 252°
2026-04-28 09:45 54.96776 73.31513 306 ft 112 kts 257°
2026-04-28 09:45 54.96637 73.30484 312 ft 63 kts 257°
2026-04-28 09:45 54.96560 73.29888 315 ft 29 kts 257°
2026-04-28 09:45 54.96527 73.29644 319 ft 13 kts 257°
2026-04-28 09:46 54.96510 73.29509 322 ft 10 kts 258°
2026-04-28 09:46 54.96498 73.29404 322 ft 9 kts 258°
2026-04-28 09:46 54.96481 73.29273 320 ft 15 kts 256°
2026-04-28 09:46 54.96431 73.29148 319 ft 14 kts 179°
2026-04-28 09:47 54.96319 73.29193 316 ft 18 kts 166°
2026-04-28 09:47 54.96187 73.29248 315 ft 21 kts 167°
2026-04-28 09:47 54.96082 73.29313 313 ft 15 kts 123°
2026-04-28 09:47 54.96099 73.29508 312 ft 18 kts 77°
2026-04-28 09:48 54.96129 73.29733 309 ft 21 kts 76°
2026-04-28 09:48 54.96164 73.30001 306 ft 25 kts 78°
2026-04-28 09:48 54.96191 73.30195 305 ft 14 kts 76°
2026-04-28 09:48 54.96219 73.30398 307 ft 21 kts 77°
2026-04-28 09:49 54.96256 73.30681 303 ft 26 kts 77°
2026-04-28 09:49 54.96299 73.31004 301 ft 29 kts 77°
2026-04-28 09:49 54.96346 73.31354 298 ft 25 kts 77°
2026-04-28 09:49 54.96373 73.31580 300 ft 18 kts 89°
2026-04-28 09:50 54.96315 73.31713 300 ft 4 kts 137°
2026-04-28 09:50 54.96295 73.31745 301 ft 3 kts 137°
2026-04-28 09:50 54.96291 73.31791 299 ft 7 kts 67°
2026-04-28 09:50 54.96294 73.31861 301 ft 6 kts 126°
2026-04-28 09:51 54.96271 73.31898 300 ft 2 kts 137°
2026-04-28 09:51 54.96271 73.31899 300 ft 0 kts 137°